Location: Newark
(42.8481°N, 0.4872°E)
Time: 02:28:38
(UTC+00:00)

ISS - Visible Passes

Search period start: 22 September 2020 00:00
Search period end: 02 October 2020 00:00
Orbit: 419 x 420 km, 51.6° (Epoch: 22 September)

Date Brightness Start Highest point End Pass type
(mag) Time Alt. Az. Time Alt. Az. Time Alt. Az.
22 Sep -1.7 19:42:02 10° WNW 19:44:46 22° NNW 19:45:58 19° NNE visible
23 Sep -1.9 18:54:15 10° W 18:57:11 27° NNW 19:00:08 10° NE visible
23 Sep -0.7 20:32:22 10° NW 20:33:22 14° NNW 20:33:22 14° NNW visible
24 Sep -1.5 19:44:43 10° NW 19:47:09 18° N 19:47:45 17° N visible
25 Sep -1.5 18:56:57 10° WNW 18:59:30 19° N 19:02:03 10° NE visible
25 Sep -0.5 20:34:29 10° NW 20:35:03 13° NNW 20:35:03 13° NNW visible
26 Sep -1.5 19:47:01 10° NW 19:49:22 19° N 19:49:22 19° N visible
27 Sep -1.5 18:59:25 10° NW 19:01:51 18° N 19:03:40 13° NE visible
27 Sep -0.4 20:36:18 10° NW 20:36:38 12° NW 20:36:38 12° NW visible
28 Sep -1.5 18:11:43 10° NW 18:14:09 18° N 18:16:36 10° NE visible
28 Sep -1.7 19:48:54 10° NW 19:50:56 23° N 19:50:56 23° N visible
29 Sep -1.9 19:01:27 10° NW 19:04:07 21° NNE 19:05:14 18° NE visible
29 Sep -0.2 20:38:01 10° NW 20:38:11 11° NW 20:38:11 11° NW visible
30 Sep -1.7 18:13:56 10° NW 18:16:26 19° N 18:18:57 10° NE visible
30 Sep -1.9 19:50:35 10° NW 19:52:31 28° NNW 19:52:31 28° NNW visible
01 Oct -2.7 19:03:10 10° NW 19:06:16 32° NNE 19:06:52 30° NE visible
